This is the latest recevied weather packets stored in our database for station/object WB4FAY-4. If no packets are shown the sender has not sent any weather packets the latest 10 day(s).
| Time | Temp. | Humidity | Pressure | Rain* | Wind** | Luminosity | Snow |
|---|---|---|---|---|---|---|---|
| 1777676718 | 17.78° C | 64% | 1014 hPa | 0.25 mm | - | - | - |
| 1777676417 | 17.78° C | 63% | 1014 hPa | 0.25 mm | - | - | - |
| 1777676117 | 18.33° C | 66% | 1014 hPa | 0.25 mm | - | - | - |
| 1777675818 | 18.33° C | 62% | 1013.9 hPa | 0.25 mm | - | - | - |
| 1777675517 | 18.33° C | 61% | 1013.9 hPa | 0.25 mm | - | - | - |
| 1777675217 | 18.33° C | 61% | 1013.8 hPa | 0.25 mm | - | - | - |
| 1777674917 | 18.33° C | 61% | 1013.9 hPa | 0.25 mm | - | - | - |
| 1777674617 | 18.33° C | 61% | 1013.9 hPa | 0.25 mm | - | - | - |
| 1777674321 | 18.33° C | 61% | 1014.1 hPa | 0.25 mm | - | - | - |
| 1777674018 | 18.33° C | 61% | 1014.2 hPa | 0.25 mm | - | - | - |
| 1777673718 | 18.33° C | 62% | 1014.1 hPa | 0.25 mm | - | - | - |
| 1777673417 | 18.33° C | 64% | 1014.1 hPa | 0.25 mm | - | - | - |
| 1777673117 | 18.33° C | 64% | 1014 hPa | 0.25 mm | - | - | - |
| 1777672818 | 18.33° C | 64% | 1013.9 hPa | 0.25 mm | - | - | - |
| 1777672517 | 18.89° C | 64% | 1013.9 hPa | 0.25 mm | - | - | - |
| 1777672218 | 18.89° C | 63% | 1013.8 hPa | 0.25 mm | - | - | - |
| 1777671917 | 18.89° C | 61% | 1013.6 hPa | 0.25 mm | - | - | - |
| 1777671617 | 18.89° C | 62% | 1013.4 hPa | 0.25 mm | - | - | - |
| 1777671317 | 18.89° C | 59% | 1013.4 hPa | 0.25 mm | - | - | - |
| 1777671023 | 18.89° C | 58% | 1013.4 hPa | 0.25 mm | - | - | - |
| 1777670717 | 19.44° C | 59% | 1013.3 hPa | 0.25 mm | - | - | - |
| 1777670418 | 19.44° C | 59% | 1013.4 hPa | 0.25 mm | - | - | - |
| 1777670117 | 19.44° C | 59% | 1013.4 hPa | 0.25 mm | - | - | - |
| 1777669817 | 18.89° C | 58% | 1013.2 hPa | 0.25 mm | - | - | - |
| 1777669518 | 19.44° C | 57% | 1013.3 hPa | 0.25 mm | - | - | - |
* Rain latest 24 hours (hover to see other rain measurements)
** Current wind speed in m/s (hover to see current wind gust speed)